sat.trackr.live / text

‹ back to catalog

ALSAT-3A

NORAD 67474 · 2026-009A

PAYLOAD ACTIVE UNKNOWN

§ Identity

Operator
Country
ALG
Launch date
2026-01-15
Launch site
JSC
Launch vehicle
Mass (kg)
RCS (m²)

External: N2YO · Heavens-Above · Gunter

§ Orbital elements

Epoch: 2026-05-25T03:18:42.948576Z

Period
94.54 min
Inclination
97.4549°
Eccentricity
0.0013407
Mean motion
15.23217873 rev/d
Perigee alt
486.9 km
Apogee alt
505.4 km
Semi-major
6,874.3 km
B*
2.2922e-4
RAAN
219.1645°
Arg perigee
188.0047°
Mean anomaly
172.0978°
Rev number
1,976

§ Raw data

ALSAT-3A1 67474U 26009A   26145.13799709  .00005366  00000+0  22922-3 0  99972 67474  97.4549 219.1645 0013407 188.0047 172.0978 15.23217873 19765

JSON: /api/v1/satellites/67474 · /tle

For live sub-satellite position, see the globe view (requires WebGL).

§ Visibility from observer

Set your observer location to see the next 7 days of passes ≥ 10°. The values pass through the URL so the page stays shareable.

No JS? Fill the form by hand. The geolocation button needs JavaScript.